Location: Northcutt
(34.7304°N, 84.4305°W)
Time: 05:05:32
(UTC+00:00)

Vanguard 2 - Pass Details

Date: 05 October 2022
Orbit: 553 x 2933 km, 32.9° (Epoch: 05 December)

Event Time Altitude Azimuth Distance (km) Brightness Sun altitude
Rises 15:16:16 0° 199° (SSW) 3,620 11.3 40.0°
Reaches altitude 10° 15:19:10 10° 183° (S) 2,972 11.2 40.4°
Maximum altitude 15:24:43 22° 135° (SE) 2,728 12.1 41.2°
Drops below altitude 10° 15:32:28 10° 90° (E) 4,324 11.9 42.2°
Sets 15:37:49 0° 78° (ENE) 5,785 12.3 42.9°
